Tracking 19283 objects as of 17-Nov-2018
HD Live streaming from Space Station
objects crossing your sky now

ELECTRON R/B

Track ELECTRON R/B now!
10-day predictions


NORAD ID: 43166
Int'l Code: 2018-010D
Perigee: 275.7 km
Apogee: 393.0 km
Inclination: 82.9 °
Period: 91.1 minutes
Semi major axis: 6705 km
RCS: Unknown
Launch date: January 21, 2018
Source: New Zealand (NZ)
Launch site: Rocket Lab Launch Complex (RLLC)

ELECTRON R/B
Note: This is a ROCKET BODY
aabbcc
Your satellite tracking list
Your tracking list is empty




NASA's NSSDC Master Catalog

Two Line Element Set (TLE):
1 43166U 18010D   18321.10962765  .00083961  10298-5  32426-3 0  9993
2 43166  82.9012 197.7172 0087503 170.2711 190.0280 15.81146034 46913
Source of the keplerian elements: AFSPC